Tracking 27107 objects as of 21-Mar-2023
HD Live streaming from Space Station
objects crossing your sky now

CZ-4C R/B

Track CZ-4C R/B now!
10-day predictions
CZ-4C R/B is classified as:


NORAD ID: 39211
Int'l Code: 2013-037D
Perigee: 463.3 km
Apogee: 619.9 km
Inclination: 98.1 °
Period: 95.3 minutes
Semi major axis: 6912 km
RCS: Unknown
Launch date: July 19, 2013
Source: People's Republic of China (PRC)
Launch site: Taiyaun Space Center, China (TSC)

Note: This is a ROCKET BODY
Your satellite tracking list
Your tracking list is empty




NASA's NSSDC Master Catalog

Two Line Element Set (TLE):
1 39211U 13037D   23079.79098147  .00007267  00000-0  38174-3 0  9994
2 39211  98.0743 269.0754 0113257  51.1251 310.0015 15.10567201530686
Source of the keplerian elements: AFSPC